| time (UTC) | temp F | wind direction | speed knots | gust knots | rain 1hr in | rain 24hr in | rain mn in | humidity % | barometer mb |
| 20260505194406 | 71 | 228 | 4.3 | 5.2 | 0.00 | 0.00 | 0.00 | 46 | 1013.1 |
| 20260505193905 | 71 | 178 | 7.0 | 8.7 | 0.00 | 0.00 | 0.00 | 45 | 1013.4 |
| 20260505193403 | 71 | 219 | 5.2 | 8.7 | 0.00 | 0.00 | 0.00 | 45 | 1013.2 |
| 20260505192901 | 72 | 229 | 7.8 | 11.3 | 0.00 | 0.00 | 0.00 | 45 | 1013.3 |
| 20260505192359 | 72 | 215 | 10.4 | 13.9 | 0.00 | 0.00 | 0.00 | 43 | 1013.3 |
| 20260505191856 | 73 | 222 | 6.1 | 7.0 | 0.00 | 0.00 | 0.00 | 43 | 1013.6 |
| 20260505191355 | 73 | 200 | 6.1 | 7.8 | 0.00 | 0.00 | 0.00 | 44 | 1013.4 |
| 20260505190851 | 72 | 230 | 8.7 | 11.3 | 0.00 | 0.00 | 0.00 | 45 | 1013.7 |
| 20260505190347 | 71 | 220 | 7.8 | 8.7 | 0.00 | 0.00 | 0.00 | 45 | 1013.8 |
| 20260505185842 | 71 | 217 | 6.1 | 7.8 | 0.00 | 0.00 | 0.00 | 45 | 1013.8 |
| 20260505185339 | 72 | 220 | 7.0 | 11.3 | 0.00 | 0.00 | 0.00 | 44 | 1013.6 |
| 20260505184835 | 73 | 211 | 5.2 | 6.1 | 0.00 | 0.00 | 0.00 | 45 | 1013.4 |
| 20260505184332 | 73 | 208 | 3.5 | 3.5 | 0.00 | 0.00 | 0.00 | 45 | 1013.6 |
| 20260505183829 | 72 | 194 | 5.2 | 8.7 | 0.00 | 0.00 | 0.00 | 45 | 1013.9 |
| 20260505183326 | 71 | 218 | 10.4 | 12.2 | 0.00 | 0.00 | 0.00 | 44 | 1014.0 |
| 20260505182823 | 71 | 217 | 9.6 | 11.3 | 0.00 | 0.00 | 0.00 | 45 | 1013.9 |
| 20260505182320 | 71 | 205 | 6.1 | 7.0 | 0.00 | 0.00 | 0.00 | 47 | 1014.0 |
| 20260505181816 | 71 | 203 | 6.1 | 7.8 | 0.00 | 0.00 | 0.00 | 47 | 1013.9 |
| 20260505181314 | 71 | 232 | 7.0 | 7.8 | 0.00 | 0.00 | 0.00 | 47 | 1014.0 |
| 20260505180810 | 71 | 230 | 6.1 | 7.8 | 0.00 | 0.00 | 0.00 | 47 | 1014.1 |
| 20260505180307 | 71 | 216 | 6.1 | 7.8 | 0.00 | 0.00 | 0.00 | 46 | 1014.1 |
| 20260505175803 | 71 | 185 | 7.0 | 7.8 | 0.00 | 0.00 | 0.00 | 49 | 1014.3 |
| 20260505175300 | 73 | 216 | 3.5 | 7.0 | 0.00 | 0.00 | 0.00 | 47 | 1014.0 |
| 20260505174756 | 73 | 300 | 2.6 | 2.6 | 0.00 | 0.00 | 0.00 | 50 | 1014.1 |
| 20260505174254 | 72 | 236 | 7.0 | 9.6 | 0.00 | 0.00 | 0.00 | 47 | 1014.1 |
| 20260505173749 | 73 | 223 | 7.0 | 8.7 | 0.00 | 0.00 | 0.00 | 47 | 1014.4 |
| 20260505173246 | 72 | 203 | 7.0 | 11.3 | 0.00 | 0.00 | 0.00 | 46 | 1014.4 |
| 20260505172743 | 72 | 202 | 7.0 | 7.8 | 0.00 | 0.00 | 0.00 | 48 | 1014.4 |
| 20260505172240 | 72 | 213 | 7.0 | 7.8 | 0.00 | 0.00 | 0.00 | 49 | 1014.4 |
| 20260505171740 | 72 | 161 | 2.6 | 3.5 | 0.00 | 0.00 | 0.00 | 51 | 1014.6 |
| 20260505171237 | 71 | 175 | 2.6 | 3.5 | 0.00 | 0.00 | 0.00 | 54 | 1014.7 |
| 20260505170734 | 71 | 241 | 7.0 | 12.2 | 0.00 | 0.00 | 0.00 | 50 | 1015.0 |
| 20260505170231 | 72 | 205 | 1.7 | 2.6 | 0.00 | 0.00 | 0.00 | 52 | 1014.9 |
| 20260505165726 | 72 | 211 | 7.0 | 8.7 | 0.00 | 0.00 | 0.00 | 54 | 1015.1 |
| 20260505165222 | 71 | 228 | 3.5 | 3.5 | 0.00 | 0.00 | 0.00 | 53 | 1015.2 |
| 20260505164718 | 71 | 215 | 5.2 | 6.1 | 0.00 | 0.00 | 0.00 | 52 | 1015.3 |
| 20260505164215 | 71 | 218 | 5.2 | 6.1 | 0.00 | 0.00 | 0.00 | 53 | 1015.3 |
| 20260505163714 | 71 | 203 | 3.5 | 5.2 | 0.00 | 0.00 | 0.00 | 55 | 1015.3 |
| 20260505163212 | 71 | 279 | 3.5 | 6.1 | 0.00 | 0.00 | 0.00 | 54 | 1015.5 |
| 20260505162709 | 71 | 196 | 2.6 | 3.5 | 0.00 | 0.00 | 0.00 | 53 | 1015.6 |
| 20260505162206 | 70 | 214 | 3.5 | 3.5 | 0.00 | 0.00 | 0.00 | 56 | 1015.5 |
| 20260505161703 | 69 | 207 | 4.3 | 5.2 | 0.00 | 0.00 | 0.00 | 55 | 1015.7 |
| 20260505161200 | 69 | 232 | 7.0 | 7.8 | 0.00 | 0.00 | 0.00 | 54 | 1015.7 |
| 20260505160658 | 69 | 204 | 2.6 | 2.6 | 0.00 | 0.00 | 0.00 | 57 | 1015.7 |
| 20260505160155 | 69 | 229 | 3.5 | 3.5 | 0.00 | 0.00 | 0.00 | 56 | 1015.8 |
| 20260505153134 | 69 | 239 | 7.0 | 7.8 | 0.00 | 0.00 | 0.00 | 54 | 1015.4 |
| 20260505152631 | 69 | 229 | 3.5 | 3.5 | 0.00 | 0.00 | 0.00 | 54 | 1015.4 |
| 20260505152127 | 69 | 235 | 1.7 | 1.7 | 0.00 | 0.00 | 0.00 | 55 | 1015.3 |
| 20260505151622 | 69 | 242 | 3.5 | 3.5 | 0.00 | 0.00 | 0.00 | 54 | 1015.4 |
| 20260505151120 | 69 | 232 | 3.5 | 3.5 | 0.00 | 0.00 | 0.00 | 54 | 1015.5 |
| 20260505150616 | 69 | 186 | 1.7 | 1.7 | 0.00 | 0.00 | 0.00 | 54 | 1015.4 |
| 20260505150113 | 68 | 229 | 3.5 | 3.5 | 0.00 | 0.00 | 0.00 | 55 | 1015.4 |
| 20260505140541 | 68 | 236 | 5.2 | 7.0 | 0.00 | 0.00 | 0.00 | 53 | 1014.7 |
| 20260505124955 | 64 | 186 | 4.3 | 7.0 | 0.00 | 0.00 | 0.00 | 55 | 1014.9 |
| 20260505124451 | 64 | 214 | 6.1 | 7.8 | 0.00 | 0.00 | 0.00 | 55 | 1015.1 |
| 20260505123948 | 63 | 216 | 3.5 | 3.5 | 0.00 | 0.00 | 0.00 | 57 | 1014.7 |
| 20260505123444 | 62 | 197 | 2.6 | 3.5 | 0.00 | 0.00 | 0.00 | 60 | 1014.8 |
| 20260505122940 | 62 | 205 | 1.7 | 2.6 | 0.00 | 0.00 | 0.00 | 63 | 1014.9 |
| 20260505122438 | 60 | 194 | 1.7 | 1.7 | 0.00 | 0.00 | 0.00 | 67 | 1014.6 |
| 20260505121934 | 60 | 176 | 0.9 | 0.9 | 0.00 | 0.00 | 0.00 | 69 | 1014.5 |
| 20260505121432 | 59 | 186 | 0.9 | 0.9 | 0.00 | 0.00 | 0.00 | 69 | 1014.4 |
| 20260505120927 | 59 | 178 | 0.0 | 0.0 | 0.00 | 0.00 | 0.00 | 72 | 1014.6 |
| 20260505120424 | 58 | 175 | 0.0 | 0.0 | 0.00 | 0.00 | 0.00 | 73 | 1014.4 |
| 20260505115923 | 58 | 172 | 0.9 | 0.9 | 0.00 | 0.00 | 0.00 | 73 | 1014.5 |
| 20260505115420 | 58 | 173 | 0.0 | 0.0 | 0.00 | 0.00 | 0.00 | 73 | 1014.5 |
| 20260505114918 | 58 | 173 | 0.0 | 0.0 | 0.00 | 0.00 | 0.00 | 73 | 1014.1 |
| 20260505114414 | 57 | 182 | 0.0 | 0.0 | 0.00 | 0.00 | 0.00 | 72 | 1014.3 |
| 20260505113910 | 57 | 181 | 0.0 | 0.0 | 0.00 | 0.00 | 0.00 | 72 | 1014.4 |
| 20260505113407 | 57 | 181 | 0.0 | 0.0 | 0.00 | 0.00 | 0.00 | 72 | 1014.2 |
| 20260505112903 | 57 | 181 | 0.0 | 0.0 | 0.00 | 0.00 | 0.00 | 71 | 1014.2 |
| 20260505112400 | 56 | 193 | 0.0 | 0.0 | 0.00 | 0.00 | 0.00 | 72 | 1014.2 |
| 20260505111856 | 56 | 194 | 0.0 | 0.0 | 0.00 | 0.00 | 0.00 | 71 | 1014.2 |
| 20260505111351 | 56 | 194 | 0.0 | 0.0 | 0.00 | 0.00 | 0.00 | 72 | 1014.0 |
| 20260505110847 | 56 | 193 | 0.0 | 0.0 | 0.00 | 0.00 | 0.00 | 72 | 1014.1 |
| 20260505110345 | 56 | 193 | 0.0 | 0.0 | 0.00 | 0.00 | 0.00 | 70 | 1013.8 |
| 20260505101815 | 58 | 197 | 0.0 | 0.0 | 0.00 | 0.00 | 0.00 | 64 | 1013.7 |
| 20260505101310 | 58 | 196 | 0.9 | 0.9 | 0.00 | 0.00 | 0.00 | 65 | 1013.5 |
| 20260505100806 | 58 | 194 | 0.0 | 0.0 | 0.00 | 0.00 | 0.00 | 65 | 1013.6 |
| 20260505100303 | 59 | 194 | 0.0 | 0.0 | 0.00 | 0.00 | 0.00 | 63 | 1013.4 |
| 20260505095759 | 59 | 194 | 0.0 | 0.0 | 0.00 | 0.00 | 0.00 | 63 | 1013.5 |
| 20260505095257 | 59 | 176 | 0.0 | 0.9 | 0.00 | 0.00 | 0.00 | 62 | 1013.6 |
| 20260505094752 | 60 | 200 | 0.0 | 0.0 | 0.00 | 0.00 | 0.00 | 62 | 1013.4 |
| 20260505094249 | 60 | 200 | 0.0 | 0.0 | 0.00 | 0.00 | 0.00 | 61 | 1013.6 |
| 20260505093745 | 59 | 191 | 0.9 | 0.9 | 0.00 | 0.00 | 0.00 | 62 | 1013.5 |
| 20260505093243 | 60 | 190 | 0.0 | 0.0 | 0.00 | 0.00 | 0.00 | 61 | 1013.6 |
| 20260505092739 | 60 | 191 | 0.9 | 0.9 | 0.00 | 0.00 | 0.00 | 60 | 1013.6 |
| 20260505092238 | 60 | 174 | 0.9 | 0.9 | 0.00 | 0.00 | 0.00 | 59 | 1013.6 |
| 20260505091735 | 61 | 183 | 0.0 | 0.0 | 0.00 | 0.00 | 0.00 | 59 | 1013.6 |
| 20260505091233 | 62 | 191 | 0.0 | 0.0 | 0.00 | 0.00 | 0.00 | 58 | 1013.7 |
| 20260505090730 | 62 | 201 | 1.7 | 1.7 | 0.00 | 0.00 | 0.00 | 56 | 1013.6 |
| 20260505090229 | 62 | 206 | 1.7 | 1.7 | 0.00 | 0.00 | 0.00 | 57 | 1013.8 |
| 20260505085725 | 62 | 189 | 0.9 | 0.9 | 0.00 | 0.00 | 0.00 | 57 | 1013.8 |
| 20260505085224 | 63 | 172 | 1.7 | 1.7 | 0.00 | 0.00 | 0.00 | 57 | 1013.9 |
| 20260505084721 | 63 | 178 | 1.7 | 1.7 | 0.00 | 0.00 | 0.00 | 56 | 1013.7 |
| 20260505084220 | 63 | 213 | 1.7 | 1.7 | 0.00 | 0.00 | 0.00 | 55 | 1013.9 |
| 20260505083716 | 63 | 205 | 0.9 | 0.9 | 0.00 | 0.00 | 0.00 | 55 | 1013.7 |
| 20260505083213 | 64 | 207 | 2.6 | 2.6 | 0.00 | 0.00 | 0.00 | 54 | 1013.7 |
| 20260505082709 | 64 | 202 | 4.3 | 5.2 | 0.00 | 0.00 | 0.00 | 54 | 1013.8 |
| 20260505082206 | 64 | 224 | 3.5 | 3.5 | 0.00 | 0.00 | 0.00 | 54 | 1013.7 |
| 20260505081702 | 64 | 168 | 4.3 | 7.0 | 0.00 | 0.00 | 0.00 | 53 | 1013.7 |
| 20260505081200 | 64 | 211 | 1.7 | 3.5 | 0.00 | 0.00 | 0.00 | 54 | 1013.6 |
| 20260505080656 | 64 | 208 | 2.6 | 2.6 | 0.00 | 0.00 | 0.00 | 54 | 1013.6 |
| 20260505080152 | 64 | 220 | 2.6 | 3.5 | 0.00 | 0.00 | 0.00 | 53 | 1013.5 |
| 20260505075648 | 64 | 233 | 3.5 | 3.5 | 0.00 | 0.00 | 0.00 | 53 | 1013.6 |
| 20260505075145 | 64 | 210 | 1.7 | 1.7 | 0.00 | 0.00 | 0.00 | 53 | 1013.4 |
| 20260505074642 | 65 | 153 | 2.6 | 2.6 | 0.00 | 0.00 | 0.00 | 52 | 1013.3 |
| 20260505074139 | 65 | 208 | 2.6 | 2.6 | 0.00 | 0.00 | 0.00 | 52 | 1013.2 |
| 20260505073637 | 65 | 211 | 7.0 | 7.0 | 0.00 | 0.00 | 0.00 | 52 | 1013.2 |
| 20260505073135 | 65 | 210 | 2.6 | 2.6 | 0.00 | 0.00 | 0.00 | 51 | 1013.5 |
| 20260505072630 | 65 | 185 | 3.5 | 7.0 | 0.00 | 0.00 | 0.00 | 51 | 1013.5 |
| 20260505072127 | 65 | 192 | 4.3 | 6.1 | 0.00 | 0.00 | 0.00 | 51 | 1013.2 |
| 20260505071623 | 66 | 225 | 5.2 | 6.1 | 0.00 | 0.00 | 0.00 | 51 | 1013.2 |
| 20260505071121 | 66 | 224 | 4.3 | 6.1 | 0.00 | 0.00 | 0.00 | 50 | 1012.8 |
| 20260505070618 | 66 | 210 | 1.7 | 1.7 | 0.00 | 0.00 | 0.00 | 50 | 1013.0 |
| 20260505070114 | 66 | 211 | 5.2 | 6.1 | 0.00 | 0.00 | 0.00 | 50 | 1013.1 |
| 20260505065610 | 66 | 231 | 5.2 | 7.0 | 0.00 | 0.00 | 0.00 | 51 | 1013.0 |
| 20260505065107 | 65 | 191 | 6.1 | 7.8 | 0.00 | 0.00 | 0.00 | 51 | 1013.2 |
| 20260505064603 | 65 | 182 | 2.6 | 2.6 | 0.00 | 0.00 | 0.00 | 51 | 1013.2 |
| 20260505064102 | 66 | 194 | 4.3 | 5.2 | 0.00 | 0.00 | 0.00 | 50 | 1013.2 |
| 20260505063559 | 66 | 197 | 4.3 | 5.2 | 0.00 | 0.00 | 0.00 | 51 | 1013.3 |
| 20260505063055 | 66 | 223 | 4.3 | 7.8 | 0.00 | 0.00 | 0.00 | 50 | 1013.5 |
| 20260505062551 | 66 | 218 | 5.2 | 7.0 | 0.00 | 0.00 | 0.00 | 50 | 1013.5 |
| 20260505062049 | 66 | 223 | 5.2 | 7.0 | 0.00 | 0.00 | 0.00 | 50 | 1013.5 |
| 20260505061546 | 66 | 224 | 2.6 | 3.5 | 0.00 | 0.00 | 0.00 | 50 | 1013.5 |
| 20260505061044 | 66 | 213 | 3.5 | 3.5 | 0.00 | 0.00 | 0.00 | 50 | 1013.6 |
| 20260505060541 | 66 | 218 | 3.5 | 5.2 | 0.00 | 0.00 | 0.00 | 50 | 1013.5 |
| 20260505060037 | 66 | 231 | 3.5 | 3.5 | 0.00 | 0.00 | 0.00 | 49 | 1013.8 |
| 20260505055532 | 66 | 189 | 2.6 | 3.5 | 0.00 | 0.00 | 0.00 | 49 | 1013.8 |
| 20260505055030 | 66 | 208 | 5.2 | 5.2 | 0.00 | 0.00 | 0.00 | 49 | 1013.7 |
| 20260505054527 | 66 | 259 | 3.5 | 5.2 | 0.00 | 0.00 | 0.00 | 49 | 1013.9 |
| 20260505054025 | 66 | 209 | 6.1 | 7.0 | 0.00 | 0.00 | 0.00 | 49 | 1013.8 |
| 20260505053522 | 66 | 226 | 3.5 | 3.5 | 0.00 | 0.00 | 0.00 | 49 | 1013.9 |
| 20260505053019 | 66 | 207 | 1.7 | 1.7 | 0.00 | 0.00 | 0.00 | 50 | 1013.9 |
| 20260505052516 | 66 | 214 | 6.1 | 7.0 | 0.00 | 0.00 | 0.00 | 48 | 1013.7 |
| 20260505052013 | 66 | 211 | 3.5 | 3.5 | 0.00 | 0.00 | 0.00 | 49 | 1013.7 |
| 20260505051510 | 66 | 186 | 1.7 | 1.7 | 0.00 | 0.00 | 0.00 | 50 | 1013.8 |
| 20260505051008 | 66 | 183 | 1.7 | 1.7 | 0.00 | 0.00 | 0.00 | 49 | 1013.7 |
| 20260505050506 | 67 | 199 | 0.9 | 1.7 | 0.00 | 0.00 | 0.00 | 49 | 1013.7 |
| 20260505041433 | 67 | 212 | 4.3 | 5.2 | 0.00 | 0.00 | 0.00 | 48 | 1013.1 |
| 20260505040931 | 67 | 200 | 1.7 | 1.7 | 0.00 | 0.00 | 0.00 | 49 | 1013.3 |
| 20260505040428 | 68 | 203 | 1.7 | 2.6 | 0.00 | 0.00 | 0.00 | 48 | 1013.1 |
| 20260505035925 | 68 | 198 | 5.2 | 7.0 | 0.00 | 0.00 | 0.00 | 48 | 1013.1 |
| 20260505035421 | 68 | 228 | 4.3 | 5.2 | 0.00 | 0.00 | 0.00 | 48 | 1013.0 |
| 20260505034918 | 68 | 236 | 3.5 | 3.5 | 0.00 | 0.00 | 0.00 | 49 | 1013.1 |
| 20260505034414 | 68 | 236 | 4.3 | 6.1 | 0.00 | 0.00 | 0.00 | 49 | 1013.1 |
| 20260505033912 | 68 | 202 | 2.6 | 3.5 | 0.00 | 0.00 | 0.00 | 49 | 1013.1 |
| 20260505033408 | 68 | 212 | 4.3 | 5.2 | 0.00 | 0.00 | 0.00 | 49 | 1013.1 |
| 20260505032907 | 68 | 216 | 3.5 | 2.6 | 0.00 | 0.00 | 0.00 | 50 | 1013.1 |
| 20260505032403 | 68 | 212 | 3.5 | 3.5 | 0.00 | 0.00 | 0.00 | 50 | 1013.3 |
| 20260505031900 | 68 | 145 | 1.7 | 2.6 | 0.00 | 0.00 | 0.00 | 50 | 1013.2 |
| 20260505031357 | 68 | 203 | 4.3 | 5.2 | 0.00 | 0.00 | 0.00 | 50 | 1013.4 |
| 20260505030854 | 68 | 231 | 4.3 | 5.2 | 0.00 | 0.00 | 0.00 | 50 | 1013.4 |
| 20260505030349 | 68 | 198 | 0.9 | 1.7 | 0.00 | 0.00 | 0.00 | 50 | 1013.4 |
| 20260505025845 | 68 | 215 | 2.6 | 3.5 | 0.00 | 0.00 | 0.00 | 49 | 1013.2 |
| 20260505025343 | 68 | 225 | 3.5 | 5.2 | 0.00 | 0.00 | 0.00 | 49 | 1013.2 |
| 20260505024842 | 68 | 211 | 3.5 | 5.2 | 0.00 | 0.00 | 0.00 | 48 | 1013.2 |
| 20260505024339 | 69 | 203 | 0.9 | 0.9 | 0.00 | 0.00 | 0.00 | 47 | 1013.1 |
| 20260505023836 | 69 | 219 | 3.5 | 5.2 | 0.00 | 0.00 | 0.00 | 47 | 1013.3 |
| 20260505023333 | 69 | 223 | 2.6 | 3.5 | 0.00 | 0.00 | 0.00 | 47 | 1013.0 |
| 20260505022830 | 70 | 209 | 3.5 | 5.2 | 0.00 | 0.00 | 0.00 | 46 | 1013.1 |
| 20260505022327 | 70 | 213 | 6.1 | 7.0 | 0.00 | 0.00 | 0.00 | 46 | 1013.0 |
| 20260505021824 | 70 | 189 | 5.2 | 5.2 | 0.00 | 0.00 | 0.00 | 45 | 1013.0 |
| 20260505021321 | 70 | 217 | 3.5 | 5.2 | 0.00 | 0.00 | 0.00 | 46 | 1012.8 |
| 20260505020816 | 70 | 202 | 3.5 | 3.5 | 0.00 | 0.00 | 0.00 | 44 | 1013.1 |
| 20260505020312 | 70 | 190 | 4.3 | 5.2 | 0.00 | 0.00 | 0.00 | 45 | 1012.8 |
| 20260505015809 | 70 | 218 | 4.3 | 5.2 | 0.00 | 0.00 | 0.00 | 46 | 1013.0 |
| 20260505015306 | 70 | 171 | 3.5 | 3.5 | 0.00 | 0.00 | 0.00 | 46 | 1013.1 |
| 20260505014804 | 70 | 196 | 2.6 | 2.6 | 0.00 | 0.00 | 0.00 | 46 | 1012.7 |
| 20260505014301 | 70 | 197 | 3.5 | 3.5 | 0.00 | 0.00 | 0.00 | 46 | 1013.0 |
| 20260505013757 | 70 | 224 | 4.3 | 5.2 | 0.00 | 0.00 | 0.00 | 46 | 1013.0 |
| 20260505013254 | 70 | 207 | 4.3 | 5.2 | 0.00 | 0.00 | 0.00 | 46 | 1013.1 |
| 20260505012753 | 70 | 197 | 2.6 | 2.6 | 0.00 | 0.00 | 0.00 | 46 | 1012.7 |
| 20260505012250 | 70 | 213 | 6.1 | 7.0 | 0.00 | 0.00 | 0.00 | 46 | 1012.8 |
| 20260505011745 | 70 | 203 | 3.5 | 3.5 | 0.00 | 0.00 | 0.00 | 46 | 1013.0 |
| 20260505011242 | 70 | 178 | 4.3 | 5.2 | 0.00 | 0.00 | 0.00 | 47 | 1012.8 |
| 20260505010738 | 70 | 202 | 2.6 | 2.6 | 0.00 | 0.00 | 0.00 | 46 | 1012.7 |
| 20260505010235 | 71 | 205 | 4.3 | 5.2 | 0.00 | 0.00 | 0.00 | 46 | 1012.8 |
| 20260505005731 | 71 | 214 | 2.6 | 3.5 | 0.00 | 0.00 | 0.00 | 45 | 1013.0 |
| 20260505005228 | 71 | 214 | 2.6 | 2.6 | 0.00 | 0.00 | 0.00 | 45 | 1013.1 |
| 20260505004725 | 71 | 212 | 5.2 | 6.1 | 0.00 | 0.00 | 0.00 | 45 | 1012.8 |
| 20260505004222 | 71 | 210 | 2.6 | 2.6 | 0.00 | 0.00 | 0.00 | 45 | 1012.7 |
| 20260505003719 | 72 | 236 | 3.5 | 5.2 | 0.00 | 0.00 | 0.00 | 44 | 1012.8 |
| 20260505003217 | 72 | 221 | 5.2 | 7.0 | 0.00 | 0.00 | 0.00 | 44 | 1012.7 |
| 20260505002713 | 72 | 216 | 4.3 | 6.1 | 0.00 | 0.00 | 0.00 | 44 | 1013.0 |
| 20260505002210 | 73 | 230 | 5.2 | 6.1 | 0.00 | 0.00 | 0.00 | 43 | 1012.8 |
| 20260505001708 | 73 | 229 | 3.5 | 5.2 | 0.00 | 0.00 | 0.00 | 44 | 1012.8 |
| 20260505001205 | 73 | 234 | 5.2 | 7.0 | 0.00 | 0.00 | 0.00 | 43 | 1012.8 |
| 20260505000702 | 73 | 199 | 2.6 | 3.5 | 0.00 | 0.00 | 0.00 | 44 | 1013.0 |
| 20260505000200 | 73 | 205 | 3.5 | 3.5 | 0.00 | 0.00 | 0.00 | 43 | 1013.0 |
| 20260504235656 | 73 | 209 | 3.5 | 6.1 | 0.00 | 0.00 | 0.00 | 43 | 1012.8 |
| 20260504235152 | 74 | 214 | 3.5 | 5.2 | 0.00 | 0.00 | 0.00 | 42 | 1013.0 |
| 20260504234650 | 74 | 207 | 3.5 | 5.2 | 0.00 | 0.00 | 0.00 | 42 | 1013.1 |
| 20260504234147 | 74 | 216 | 4.3 | 5.2 | 0.00 | 0.00 | 0.00 | 41 | 1013.0 |
| 20260504233643 | 74 | 240 | 5.2 | 7.8 | 0.00 | 0.00 | 0.00 | 41 | 1013.0 |
| 20260504233139 | 74 | 223 | 5.2 | 6.1 | 0.00 | 0.00 | 0.00 | 40 | 1012.7 |
| 20260504232637 | 75 | 217 | 5.2 | 6.1 | 0.00 | 0.00 | 0.00 | 40 | 1012.8 |
| 20260504232133 | 75 | 241 | 7.8 | 7.8 | 0.00 | 0.00 | 0.00 | 40 | 1013.0 |
| 20260504231630 | 75 | 212 | 3.5 | 5.2 | 0.00 | 0.00 | 0.00 | 40 | 1013.0 |
| 20260504231126 | 75 | 228 | 5.2 | 6.1 | 0.00 | 0.00 | 0.00 | 40 | 1013.0 |
| 20260504230622 | 75 | 164 | 2.6 | 2.6 | 0.00 | 0.00 | 0.00 | 39 | 1012.8 |
| 20260504230122 | 76 | 231 | 6.1 | 7.0 | 0.00 | 0.00 | 0.00 | 39 | 1012.8 |
| 20260504225619 | 76 | 167 | 6.1 | 7.8 | 0.00 | 0.00 | 0.00 | 39 | 1012.8 |
| 20260504225115 | 76 | 207 | 5.2 | 7.0 | 0.00 | 0.00 | 0.00 | 38 | 1012.8 |
| 20260504224612 | 76 | 214 | 7.8 | 8.7 | 0.00 | 0.00 | 0.00 | 39 | 1012.8 |
| 20260504224109 | 76 | 105 | 3.5 | 3.5 | 0.00 | 0.00 | 0.00 | 39 | 1012.8 |
| 20260504223606 | 76 | 214 | 9.6 | 11.3 | 0.00 | 0.00 | 0.00 | 39 | 1013.2 |
| 20260504223102 | 77 | 201 | 7.0 | 7.8 | 0.00 | 0.00 | 0.00 | 38 | 1012.8 |
| 20260504222559 | 76 | 203 | 2.6 | 2.6 | 0.00 | 0.00 | 0.00 | 38 | 1013.1 |
| 20260504222056 | 77 | 235 | 5.2 | 9.6 | 0.00 | 0.00 | 0.00 | 38 | 1013.1 |
| 20260504221553 | 78 | 248 | 3.5 | 3.5 | 0.00 | 0.00 | 0.00 | 37 | 1013.0 |
| 20260504221050 | 78 | 251 | 5.2 | 6.1 | 0.00 | 0.00 | 0.00 | 36 | 1013.0 |
| 20260504220546 | 78 | 215 | 3.5 | 6.1 | 0.00 | 0.00 | 0.00 | 36 | 1012.8 |
| 20260504220044 | 77 | 232 | 6.1 | 7.8 | 0.00 | 0.00 | 0.00 | 35 | 1013.0 |
| 20260504215540 | 77 | 195 | 6.1 | 7.0 | 0.00 | 0.00 | 0.00 | 36 | 1012.7 |
| 20260504215038 | 78 | 220 | 4.3 | 6.1 | 0.00 | 0.00 | 0.00 | 38 | 1012.8 |
| 20260504214533 | 78 | 226 | 2.6 | 3.5 | 0.00 | 0.00 | 0.00 | 38 | 1012.7 |
| 20260504214030 | 78 | 218 | 5.2 | 6.1 | 0.00 | 0.00 | 0.00 | 38 | 1012.6 |
| 20260504213526 | 78 | 200 | 4.3 | 5.2 | 0.00 | 0.00 | 0.00 | 40 | 1012.4 |
| 20260504213024 | 78 | 266 | 3.5 | 6.1 | 0.00 | 0.00 | 0.00 | 38 | 1012.5 |
| 20260504212519 | 77 | 204 | 5.2 | 7.0 | 0.00 | 0.00 | 0.00 | 38 | 1012.6 |
| 20260504212017 | 77 | 213 | 4.3 | 5.2 | 0.00 | 0.00 | 0.00 | 38 | 1012.7 |
| 20260504211514 | 78 | 239 | 2.6 | 5.2 | 0.00 | 0.00 | 0.00 | 39 | 1013.1 |
| 20260504211011 | 79 | 244 | 5.2 | 7.0 | 0.00 | 0.00 | 0.00 | 38 | 1012.8 |
| 20260504210508 | 78 | 167 | 4.3 | 5.2 | 0.00 | 0.00 | 0.00 | 38 | 1013.0 |
| 20260504210005 | 78 | 233 | 7.8 | 8.7 | 0.00 | 0.00 | 0.00 | 38 | 1012.8 |
| 20260504205502 | 77 | 228 | 8.7 | 12.2 | 0.00 | 0.00 | 0.00 | 39 | 1013.0 |
| 20260504205000 | 78 | 211 | 4.3 | 5.2 | 0.00 | 0.00 | 0.00 | 39 | 1013.2 |
| 20260504204458 | 78 | 259 | 7.0 | 7.8 | 0.00 | 0.00 | 0.00 | 38 | 1013.1 |
| 20260504203957 | 78 | 230 | 3.5 | 5.2 | 0.00 | 0.00 | 0.00 | 40 | 1013.2 |
| 20260504203454 | 77 | 179 | 3.5 | 5.2 | 0.00 | 0.00 | 0.00 | 40 | 1013.3 |
| 20260504202950 | 78 | 222 | 5.2 | 9.6 | 0.00 | 0.00 | 0.00 | 39 | 1013.2 |
| 20260504202447 | 79 | 227 | 6.1 | 7.0 | 0.00 | 0.00 | 0.00 | 40 | 1013.2 |
| 20260504201944 | 78 | 211 | 5.2 | 7.0 | 0.00 | 0.00 | 0.00 | 41 | 1013.3 |
| 20260504201441 | 78 | 251 | 7.0 | 11.3 | 0.00 | 0.00 | 0.00 | 40 | 1013.7 |
| 20260504200939 | 77 | 206 | 5.2 | 7.0 | 0.00 | 0.00 | 0.00 | 40 | 1013.7 |
| 20260504200435 | 77 | 222 | 5.2 | 7.0 | 0.00 | 0.00 | 0.00 | 42 | 1013.8 |
| 20260504195932 | 77 | 228 | 9.6 | 9.6 | 0.00 | 0.00 | 0.00 | 42 | 1013.9 |
| 20260504195427 | 78 | 200 | 8.7 | 9.6 | 0.00 | 0.00 | 0.00 | 39 | 1014.0 |
| 20260504194924 | 77 | 224 | 4.3 | 7.0 | 0.00 | 0.00 | 0.00 | 43 | 1013.8 |